| time (UTC) | temp C | wind direction | speed KPH | gust KPH | rain 1hr cm | rain 24hr cm | rain mn cm | humidity % | barometer mb |
| 20260504035535 | 15 | 187 | 1.6 | 12.9 | 0.00 | 0.00 | 0.00 | 82 | |
| 20260504035035 | 15 | 248 | 4.8 | 12.9 | 0.00 | 0.00 | 0.00 | 82 | |
| 20260504034535 | 15 | 199 | 4.8 | 17.7 | 0.00 | 0.00 | 0.00 | 83 | |
| 20260504033032 | 14 | 88 | 6.4 | 16.1 | 0.00 | 0.00 | 0.00 | 83 | |
| 20260504032535 | 14 | 192 | 1.6 | 19.3 | 0.00 | 0.00 | 0.00 | 83 | |
| 20260504032035 | 14 | 150 | 0.0 | 12.9 | 0.00 | 0.00 | 0.00 | 83 | |
| 20260504031535 | 14 | 144 | 0.0 | 12.9 | 0.00 | 0.00 | 0.00 | 83 | |
| 20260504031035 | 14 | 195 | 0.0 | 11.3 | 0.00 | 0.00 | 0.00 | 83 | |
| 20260504025035 | 14 | 198 | 4.8 | 12.9 | 0.00 | 0.00 | 0.00 | 82 | |
| 20260504024535 | 14 | 167 | 0.0 | 12.9 | 0.00 | 0.00 | 0.00 | 82 | |
| 20260504024035 | 14 | 205 | 6.4 | 14.5 | 0.00 | 0.00 | 0.00 | 82 | |
| 20260504023033 | 14 | 194 | 9.7 | 17.7 | 0.00 | 0.00 | 0.00 | 82 | |
| 20260504021534 | 14 | 164 | 8.0 | 16.1 | 0.00 | 0.00 | 0.00 | 82 | |
| 20260504021034 | 15 | 142 | 8.0 | 11.3 | 0.00 | 0.00 | 0.00 | 82 | |
| 20260504020534 | 15 | 198 | 1.6 | 14.5 | 0.00 | 0.00 | 0.00 | 81 | |
| 20260504015534 | 15 | 203 | 4.8 | 16.1 | 0.00 | 0.00 | 0.00 | 80 | |
| 20260504015034 | 15 | 230 | 1.6 | 12.9 | 0.00 | 0.00 | 0.00 | 80 | |
| 20260504014534 | 15 | 156 | 6.4 | 9.7 | 0.00 | 0.00 | 0.00 | 80 | |
| 20260504014034 | 15 | 160 | 0.0 | 12.9 | 0.00 | 0.00 | 0.00 | 79 | |
| 20260504013534 | 15 | 188 | 8.0 | 12.9 | 0.00 | 0.00 | 0.00 | 79 | |
| 20260504013033 | 15 | 213 | 1.6 | 17.7 | 0.00 | 0.00 | 0.00 | 79 | |
| 20260504012534 | 15 | 215 | 1.6 | 9.7 | 0.00 | 0.00 | 0.00 | 79 | |
| 20260504011534 | 15 | 222 | 1.6 | 12.9 | 0.00 | 0.00 | 0.00 | 79 | |
| 20260504011034 | 15 | 195 | 3.2 | 12.9 | 0.00 | 0.00 | 0.00 | 79 | |
| 20260504010534 | 15 | 210 | 3.2 | 14.5 | 0.00 | 0.00 | 0.00 | 79 | |
| 20260504010034 | 15 | 184 | 6.4 | 12.9 | 0.00 | 0.00 | 0.00 | 79 | |
| 20260504005534 | 15 | 181 | 1.6 | 11.3 | 0.00 | 0.00 | 0.00 | 79 | |
| 20260504005034 | 15 | 196 | 8.0 | 19.3 | 0.00 | 0.00 | 0.00 | 79 | |
| 20260504004534 | 15 | 172 | 0.0 | 20.9 | 0.00 | 0.00 | 0.00 | 78 | |
| 20260504004034 | 15 | 191 | 1.6 | 20.9 | 0.00 | 0.00 | 0.00 | 79 | |
| 20260504003033 | 15 | 4 | 0.0 | 24.1 | 0.00 | 0.00 | 0.00 | 80 | |
| 20260504002534 | 15 | 140 | 6.4 | 14.5 | 0.00 | 0.00 | 0.00 | 80 | |
| 20260504002034 | 16 | 185 | 3.2 | 14.5 | 0.00 | 0.00 | 0.00 | 80 | |
| 20260504001534 | 16 | 184 | 8.0 | 17.7 | 0.00 | 0.00 | 0.00 | 79 | |
| 20260504001034 | 16 | 63 | 0.0 | 22.5 | 0.00 | 0.00 | 0.00 | 78 | |
| 20260504000534 | 16 | 209 | 0.0 | 16.1 | 0.00 | 0.00 | 0.00 | 78 | |
| 20260504000034 | 16 | 215 | 0.0 | 17.7 | 0.00 | 0.00 | 0.00 | 77 | |
| 20260503235534 | 16 | 181 | 0.0 | 19.3 | 0.00 | 0.00 | 0.00 | 77 | |
| 20260503235034 | 16 | 196 | 4.8 | 17.7 | 0.00 | 0.00 | 0.00 | 77 | |
| 20260503234534 | 16 | 187 | 6.4 | 14.5 | 0.00 | 0.00 | 0.00 | 77 | |
| 20260503234034 | 16 | 188 | 8.0 | 12.9 | 0.00 | 0.00 | 0.00 | 76 | |
| 20260503233534 | 16 | 192 | 3.2 | 11.3 | 0.00 | 0.00 | 0.00 | 76 | |
| 20260503233033 | 16 | 219 | 9.7 | 12.9 | 0.00 | 0.00 | 0.00 | 76 | |
| 20260503230535 | 16 | 222 | 8.0 | 12.9 | 0.00 | 0.00 | 0.00 | 75 | |
| 20260503230035 | 16 | 202 | 3.2 | 14.5 | 0.00 | 0.00 | 0.00 | 74 | |
| 20260503225535 | 16 | 220 | 4.8 | 16.1 | 0.00 | 0.00 | 0.00 | 74 | |
| 20260503224535 | 16 | 195 | 0.0 | 12.9 | 0.00 | 0.00 | 0.00 | 75 | |
| 20260503223535 | 16 | 156 | 6.4 | 19.3 | 0.00 | 0.00 | 0.00 | 74 | |
| 20260503223033 | 16 | 358 | 12.9 | 19.3 | 0.00 | 0.00 | 0.00 | 73 | |
| 20260503222535 | 16 | 126 | 3.2 | 20.9 | 0.00 | 0.00 | 0.00 | 73 | |
| 20260503221535 | 16 | 5 | 19.3 | 19.3 | 0.00 | 0.00 | 0.00 | 73 | |
| 20260503221035 | 16 | 248 | 1.6 | 17.7 | 0.00 | 0.00 | 0.00 | 72 | |
| 20260503215535 | 16 | 15 | 12.9 | 22.5 | 0.00 | 0.00 | 0.00 | 73 | |
| 20260503214035 | 16 | 160 | 6.4 | 29.0 | 0.00 | 0.00 | 0.00 | 72 | |
| 20260503213034 | 16 | 358 | 12.9 | 24.1 | 0.00 | 0.00 | 0.00 | 73 | |
| 20260503212035 | 16 | 18 | 20.9 | 22.5 | 0.00 | 0.00 | 0.00 | 73 | |
| 20260503211535 | 16 | 195 | 0.0 | 24.1 | 0.00 | 0.00 | 0.00 | 74 | |
| 20260503211035 | 16 | 88 | 20.9 | 24.1 | 0.00 | 0.00 | 0.00 | 73 | |
| 20260503210535 | 16 | 233 | 3.2 | 20.9 | 0.00 | 0.00 | 0.00 | 74 | |
| 20260503210035 | 16 | 43 | 11.3 | 19.3 | 0.00 | 0.00 | 0.00 | 73 | |
| 20260503205535 | 16 | 12 | 11.3 | 25.7 | 0.00 | 0.00 | 0.00 | 72 | |
| 20260503204535 | 16 | 226 | 6.4 | 19.3 | 0.00 | 0.00 | 0.00 | 75 | |
| 20260503204035 | 16 | 25 | 9.7 | 24.1 | 0.00 | 0.00 | 0.00 | 73 | |
| 20260503203535 | 16 | 205 | 8.0 | 24.1 | 0.00 | 0.00 | 0.00 | 73 | |
| 20260503203034 | 16 | 358 | 14.5 | 27.4 | 0.00 | 0.00 | 0.00 | 73 | |
| 20260503202535 | 16 | 42 | 9.7 | 29.0 | 0.00 | 0.00 | 0.00 | 71 | |
| 20260503202035 | 16 | 203 | 16.1 | 20.9 | 0.00 | 0.00 | 0.00 | 73 | |
| 20260503201535 | 16 | 189 | 1.6 | 16.1 | 0.00 | 0.00 | 0.00 | 73 | |
| 20260503201035 | 16 | 217 | 11.3 | 19.3 | 0.00 | 0.00 | 0.00 | 72 | |
| 20260503200535 | 16 | 258 | 9.7 | 24.1 | 0.00 | 0.00 | 0.00 | 71 | |
| 20260503200035 | 17 | 212 | 14.5 | 25.7 | 0.00 | 0.00 | 0.00 | 70 | |
| 20260503195035 | 17 | 26 | 22.5 | 35.4 | 0.00 | 0.00 | 0.00 | 69 | |
| 20260503194535 | 17 | 226 | 11.3 | 22.5 | 0.00 | 0.00 | 0.00 | 71 | |
| 20260503194035 | 17 | 358 | 19.3 | 22.5 | 0.00 | 0.00 | 0.00 | 71 | |
| 20260503193535 | 17 | 45 | 12.9 | 29.0 | 0.00 | 0.00 | 0.00 | 72 | |
| 20260503193034 | 17 | 345 | 25.7 | 30.6 | 0.00 | 0.00 | 0.00 | 71 | |
| 20260503192535 | 16 | 206 | 6.4 | 32.2 | 0.00 | 0.00 | 0.00 | 72 | |
| 20260503192035 | 17 | 11 | 19.3 | 38.6 | 0.00 | 0.00 | 0.00 | 68 | |
| 20260503191535 | 17 | 219 | 14.5 | 32.2 | 0.00 | 0.00 | 0.00 | 69 | |
| 20260503191035 | 17 | 60 | 25.7 | 35.4 | 0.00 | 0.00 | 0.00 | 72 | |
| 20260503190535 | 17 | 163 | 12.9 | 25.7 | 0.00 | 0.00 | 0.00 | 71 | |
| 20260503185535 | 16 | 156 | 6.4 | 27.4 | 0.00 | 0.00 | 0.00 | 72 | |
| 20260503184537 | 16 | 247 | 4.8 | 22.5 | 0.00 | 0.00 | 0.00 | 74 | |
| 20260503184035 | 16 | 11 | 16.1 | 29.0 | 0.00 | 0.00 | 0.00 | 72 | |
| 20260503183535 | 16 | 229 | 6.4 | 30.6 | 0.00 | 0.00 | 0.00 | 72 | |
| 20260503183034 | 16 | 74 | 24.1 | 32.2 | 0.00 | 0.00 | 0.00 | 71 | |
| 20260503181035 | 16 | 144 | 14.5 | 29.0 | 0.00 | 0.00 | 0.00 | 72 | |
| 20260503180535 | 16 | 14 | 16.1 | 33.8 | 0.00 | 0.00 | 0.00 | 71 | |
| 20260503180036 | 16 | 220 | 8.0 | 29.0 | 0.00 | 0.00 | 0.00 | 74 | |
| 20260503174536 | 15 | 78 | 14.5 | 30.6 | 0.00 | 0.00 | 0.00 | 72 | |
| 20260503174036 | 15 | 172 | 12.9 | 25.7 | 0.00 | 0.00 | 0.00 | 74 | |
| 20260503173536 | 15 | 227 | 11.3 | 30.6 | 0.00 | 0.00 | 0.00 | 73 | |
| 20260503173034 | 16 | 36 | 20.9 | 32.2 | 0.00 | 0.00 | 0.00 | 71 | |
| 20260503172536 | 16 | 232 | 8.0 | 35.4 | 0.00 | 0.00 | 0.00 | 71 | |
| 20260503172036 | 15 | 265 | 4.8 | 22.5 | 0.00 | 0.00 | 0.00 | 73 | |
| 20260503171036 | 15 | 355 | 19.3 | 29.0 | 0.00 | 0.00 | 0.00 | 70 | |
| 20260503170536 | 15 | 222 | 14.5 | 25.7 | 0.00 | 0.00 | 0.00 | 73 | |
| 20260503150536 | 13 | 358 | 0.0 | 27.4 | 0.00 | 0.00 | 0.00 | 73 | |
| 20260503130536 | 8 | 196 | 11.3 | 24.1 | 0.00 | 0.00 | 0.00 | 88 | |
| 20260503110537 | 3 | 229 | 3.2 | 11.3 | 0.00 | 0.00 | 0.00 | 100 | |
| 20260503081037 | 1 | 358 | 0.0 | 0.0 | 0.00 | 0.00 | 0.00 | 100 | |
| 20260503072537 | 1 | 358 | 0.0 | 0.0 | 0.00 | 0.00 | 0.00 | 100 | |
| 20260503072037 | 1 | 358 | 0.0 | 0.0 | 0.00 | 0.00 | 0.00 | 100 | |
| 20260503071537 | 1 | 358 | 0.0 | 0.0 | 0.00 | 0.00 | 0.00 | 100 | |
| 20260503071037 | 1 | 358 | 0.0 | 0.0 | 0.00 | 0.00 | 0.00 | 100 | |
| 20260503070537 | 1 | 358 | 0.0 | 0.0 | 0.00 | 0.00 | 0.00 | 100 | |
| 20260503055038 | 2 | 358 | 0.0 | 0.0 | 0.00 | 0.00 | 0.00 | 100 | |
| 20260503054038 | 2 | 358 | 0.0 | 0.0 | 0.00 | 0.00 | 0.00 | 100 | |
| 20260503053036 | 2 | 358 | 0.0 | 0.0 | 0.00 | 0.00 | 0.00 | 100 | |
| 20260503052038 | 2 | 358 | 0.0 | 0.0 | 0.00 | 0.00 | 0.00 | 100 | |
| 20260503051038 | 2 | 358 | 0.0 | 0.0 | 0.00 | 0.00 | 0.00 | 100 | |
| 20260503050538 | 2 | 358 | 0.0 | 0.0 | 0.00 | 0.00 | 0.00 | 100 | |
| 20260503050038 | 2 | 358 | 0.0 | 0.0 | 0.00 | 0.00 | 0.00 | 100 | |
| 20260503045538 | 2 | 358 | 0.0 | 0.0 | 0.00 | 0.00 | 0.00 | 100 | |
| 20260503045038 | 2 | 358 | 0.0 | 0.0 | 0.00 | 0.00 | 0.00 | 100 | |
| 20260503043538 | 2 | 358 | 0.0 | 0.0 | 0.00 | 0.00 | 0.00 | 100 | |
| 20260503043037 | 2 | 358 | 0.0 | 0.0 | 0.00 | 0.00 | 0.00 | 100 | |
| 20260503042538 | 2 | 358 | 0.0 | 0.0 | 0.00 | 0.00 | 0.00 | 100 | |
| 20260503042038 | 2 | 358 | 0.0 | 0.0 | 0.00 | 0.00 | 0.00 | 100 | |
| 20260503041038 | 3 | 358 | 0.0 | 0.0 | 0.00 | 0.00 | 0.00 | 100 |